This demonstration page uses our WeatherBlox Daily Observations layout. Learn more.

Left ArrowRight Arrow

39.51506, -84.39828

Hourly Observations for March 27, 2015

Temp ( °F °C ) Dew Point ( °F °C ) Humidity (%) Winds ( mph kmh ) Pressure ( in mb ) Visibility ( mi km ) Precip ( " mm )
12:15 am 00:15 Cloudy 39 4 27 -2.7 62 62 N 9 15 30.00 1016 10 16 N/A
12:35 am 00:35 Cloudy 39 4 27 -3 61 61 N 7 11 30.00 1016 10 16 N/A
12:55 am 00:55 Cloudy 39 4 27 -3 61 61 N 3 6 30.00 1016 10 16 N/A
1:15 am 01:15 Cloudy 39 4 26 -3.3 59 59 NNE 8 13 30.00 1016 10 16 N/A
1:35 am 01:35 Cloudy 39 4 26 -3.5 58 58 NNE 7 11 30.00 1016 10 16 N/A
1:55 am 01:55 Cloudy 39 4 26 -3.5 58 58 NNE 7 11 30.03 1017 10 16 N/A
2:15 am 02:15 Cloudy 39 4 25 -4 56 56 NNE 6 9 30.00 1016 10 16 N/A
2:35 am 02:35 Cloudy 37 2.9 24 -4.7 58 58 N 7 11 30.03 1017 10 16 N/A
2:55 am 02:55 Cloudy 37 2.6 23 -5 58 58 N 6 9 30.03 1017 10 16 N/A
3:15 am 03:15 Partly Cloudy 37 2.6 25 -4.1 62 62 N 3 6 30.03 1017 10 16 N/A
3:35 am 03:35 Clear 37 2.6 25 -3.7 64 64 N 3 6 30.03 1017 10 16 N/A
3:55 am 03:55 Clear 34 1.2 24 -4.3 67 67 N N/A 30.00 1016 10 16 N/A
4:15 am 04:15 Clear 34 1.2 27 -2.7 76 76 N N/A 30.00 1016 10 16 N/A
4:35 am 04:35 Clear 34 1.2 29 -1.5 82 82 NNW 3 6 30.00 1016 10 16 N/A
4:55 am 04:55 Clear 34 1.2 29 -1.6 82 82 N 3 6 30.00 1016 10 16 N/A
5:15 am 05:15 Clear 34 1.2 28 -2.4 77 77 NNW 3 6 30.00 1016 10 16 N/A
5:35 am 05:35 Clear 34 1.2 29 -1.6 82 82 N 3 6 30.00 1016 10 16 N/A
5:55 am 05:55 Clear 34 1.1 29 -1.9 81 81 N N/A 30.00 1016 10 16 N/A
6:15 am 06:15 Clear 34 1.2 28 -2.5 77 77 N 5 7 30.03 1017 10 16 N/A
6:35 am 06:35 Clear 33 0.3 26 -3.4 76 76 N 5 7 30.03 1017 10 16 N/A
6:55 am 06:55 Clear 34 1.2 27 -2.6 76 76 N N/A 30.03 1017 10 16 N/A
7:15 am 07:15 Clear 32 undefined 26 -3.3 79 79 N N/A 30.03 1017 10 16 N/A
7:35 am 07:35 Sunny 32 undefined 26 -3.2 79 79 N N/A 30.03 1017 10 16 N/A
7:55 am 07:55 Sunny 32 undefined 27 -3 80 80 NW 3 6 30.06 1018 10 16 N/A
8:15 am 08:15 Sunny 34 1.2 27 -3 74 74 NNW 3 6 30.03 1017 10 16 N/A
8:35 am 08:35 Sunny 34 1.2 25 -3.8 70 70 N 6 9 30.03 1017 10 16 N/A
8:55 am 08:55 Sunny 34 1.2 24 -4.5 66 66 NNW 8 13 30.03 1017 10 16 N/A
9:15 am 09:15 Sunny 35 1.6 24 -4.2 66 66 NNW 8 13 30.03 1017 10 16 N/A
9:35 am 09:35 Sunny 37 2.6 26 -3.6 64 64 NNW 8 13 30.03 1017 10 16 N/A
9:55 am 09:55 Partly Cloudy 37 2.6 25 -4 62 62 N 12 19 30.03 1017 10 16 N/A
10:15 am 10:15 Mostly Cloudy 37 2.6 25 -4 62 62 NNW 9 15 30.06 1018 10 16 N/A
10:35 am 10:35 Cloudy 35 1.4 24 -4.7 64 64 NNE 10 17 30.06 1018 10 16 N/A
10:55 am 10:55 Cloudy 34 1.2 23 -4.9 64 64 N 9 15 30.06 1018 10 16 N/A
11:15 am 11:15 Cloudy 34 1.2 22 -5.5 61 61 N 13 20 30.06 1018 10 16 N/A
11:35 am 11:35 Cloudy 35 1.9 23 -5.2 60 60 N 13 20 30.06 1018 10 16 N/A
11:55 am 11:55 Cloudy 34 1.2 18 -8 51 51 NNW 15 24 30.06 1018 10 16 N/A
12:15 pm 12:15 Cloudy 34 1.2 20 -6.7 56 56 NNW 15 24 30.09 1019 10 16 N/A
12:35 pm 12:35 Cloudy 34 1.2 19 -7.5 53 53 N 14 22 30.06 1018 10 16 N/A
12:55 pm 12:55 Cloudy 37 2.6 19 -7.1 49 49 N 9 15 30.06 1018 10 16 N/A
1:15 pm 13:15 Cloudy 35 1.7 19 -7.4 51 51 NNW 12 19 30.06 1018 10 16 N/A
1:35 pm 13:35 Cloudy 37 2.6 20 -6.8 50 50 N 10 17 30.06 1018 10 16 N/A
1:55 pm 13:55 Cloudy 35 1.9 19 -7.3 51 51 NW 14 22 30.06 1018 10 16 N/A
2:15 pm 14:15 Cloudy 35 1.5 19 -7.3 52 52 NNW 9 15 30.06 1018 10 16 N/A
2:35 pm 14:35 Cloudy 37 2.6 18 -7.9 46 46 NNW 13 20 30.06 1018 10 16 N/A
2:55 pm 14:55 Cloudy 34 1.2 15 -9.7 44 44 N 14 22 30.09 1019 10 16 N/A
3:15 pm 15:15 Cloudy 34 1.2 15 -9.7 44 44 N 10 17 30.09 1019 10 16 N/A
3:35 pm 15:35 Cloudy 34 1.2 13 -10.6 41 41 NNW 18 30 30.06 1018 10 16 N/A
3:55 pm 15:55 Cloudy 34 1.2 13 -10.7 41 41 NNW 12 19 30.06 1018 10 16 N/A
4:15 pm 16:15 Cloudy 34 1.2 13 -10.5 42 42 N 9 15 30.06 1018 10 16 N/A
4:35 pm 16:35 Cloudy 34 1.2 14 -9.8 44 44 NNW 12 19 30.06 1018 10 16 N/A
4:55 pm 16:55 Cloudy 34 1.2 15 -9.6 45 45 N 14 22 30.09 1019 10 16 N/A
5:15 pm 17:15 Cloudy 34 1.2 14 -10 43 43 NNW 15 24 30.09 1019 10 16 N/A
5:35 pm 17:35 Cloudy 34 1.2 14 -10.1 43 43 undefined N/A N/A 10 16 N/A
5:55 pm 17:55 undefined 34 1.2 14 -10 43 43 NW 10 17 30.09 1019 10 16 N/A
6:15 pm 18:15 Cloudy 34 1.2 13 -10.7 41 41 undefined N/A N/A 10 16 N/A
6:35 pm 18:35 Cloudy N/A N/A N/A undefined N/A N/A 10 16 N/A
6:55 pm 18:55 Cloudy 34 1.2 15 -9.5 45 45 undefined N/A N/A 10 16 N/A
7:15 pm 19:15 Cloudy 33 0.4 13 -10.5 44 44 NNW 12 19 30.09 1019 10 16 N/A
7:35 pm 19:35 Cloudy 32 undefined 16 -8.9 52 52 NNW 8 13 30.09 1019 N/A N/A
7:55 pm 19:55 Cloudy 32 undefined 16 -8.8 52 52 NNW 14 22 30.12 1020 10 16 N/A
8:15 pm 20:15 Cloudy with Light Snow 30 -1.1 17 -8.3 58 58 N 6 9 30.12 1020 10 16 N/A
8:35 pm 20:35 Cloudy 30 -0.9 17 -8.4 57 57 NNW 9 15 30.12 1020 10 16 N/A
8:55 pm 20:55 Cloudy with Light Snow 29 -1.5 22 -5.7 73 73 NNW 5 7 N/A 7 11 N/A
9:15 pm 21:15 Cloudy 29 -1.5 20 -6.6 69 69 NW 5 7 30.12 1020 10 16 N/A
9:35 pm 21:35 Cloudy 29 -1.5 20 -6.6 69 69 WNW 3 6 30.15 1021 10 16 N/A
9:55 pm 21:55 Cloudy 29 -1.5 20 -6.4 70 70 WNW 5 7 30.15 1021 10 16 N/A
10:15 pm 22:15 Cloudy 29 -1.5 20 -6.6 69 69 WNW 5 7 30.15 1021 10 16 N/A
10:35 pm 22:35 Cloudy N/A N/A N/A undefined N/A N/A 10 16 N/A
10:55 pm 22:55 Cloudy 30 -0.9 11 -11.6 45 45 NNW 8 13 30.15 1021 10 16 N/A
11:15 pm 23:15 Cloudy 31 -0.8 10 -12.4 41 41 NNW 8 13 30.15 1021 10 16 N/A
11:35 pm 23:35 Cloudy 29 -1.5 11 -11.9 45 45 NW 12 19 30.15 1021 10 16 N/A
11:55 pm 23:55 Mostly Cloudy 29 -1.5 12 -11.1 48 48 NNW 13 20 30.18 1022 10 16 N/A

Powered by AerisWeather